User: anonymous   Login
Location: *
(37.5724°S, 58.0067°E)
Time: 11:32:44
(UTC+00:00)
Language:

CSL-04 Rocket - Orbit

View from above orbital plane
View from above orbital plane
View from above satellite
View from above satellite

Ground track
Ground track

The orbit data is extracted from the following two-line orbital elements,

1 25732U 99025C   20338.14842681 -.00000005  00000-0  19652-4 0  9997
2 25732  98.9277   7.9129 0038353  89.8608 311.8305 14.17684752115869
Epoch (UTC): 03 December 2020 03:33:44
Eccentricity: 0.0038353
inclination: 98.9277°
perigee height: 805 km
apogee height: 861 km
right ascension of ascending node: 7.9129°
argument of perigee: 89.8608°
revolutions per day: 14.17684752
mean anomaly at epoch: 311.8305°
orbit number at epoch: 11586

The dashed part of the orbit path shows where the satellite is in the earth's shadow,  

DLR